Regional Weather Roundup
Issued by NWS Sioux Falls, SD

Home | Current Version | Previous Version | Text Only | Print | Product List | Glossary Off
Versions: 1 2 3 4 5 6 7 8 9 10 11 12 13 14 15 16 17 18 19 20 21 22 23 24 25 26 27 28 29 30 31 32 33 34 35 36 37 38 39 40 41 42 43 44 45 46 47 48 49 50

000
ASUS43 KFSD 180502
RWRFSD

WEATHER ROUNDUP FOR SE SOUTH DAKOTA/SW MINNESOTA/NW IOWA
NATIONAL WEATHER SERVICE SIOUX FALLS SD
1100 PM CST WED JAN 17 2018

NOTE: "FAIR" INDICATES FEW OR NO CLOUDS BELOW 12,000 FEET WITH NO
SIGNIFICANT WEATHER AND OR OBSTRUCTIONS TO VISIBILITY.


SDZ038>040-050-052>070-180600-
SOUTHEAST SOUTH DAKOTA

CITY           SKY/WX    TMP DP  RH WIND       PRES   REMARKS
BROOKINGS      CLOUDY    16  13  88 SW6       30.09F WCI   7
CHAMBERLAIN    CLEAR     28  24  85 CALM      30.12F
HURON          CLEAR     26  21  81 SW6       30.09F WCI  19
MADISON        FAIR      23  23 100 SW13      30.09F WCI  11
MITCHELL       CLEAR     24  20  84 SW6       30.13F WCI  17
SIOUX FALLS    CLOUDY    24  17  74 VRB3      30.13F
WINNER         FAIR      32  22  66 S7        30.13S WCI  26
YANKTON        CLOUDY    27  19  72 SW8       30.15F WCI  19
$$

MNZ071-072-080-081-089-090-097-098-180600-
SOUTHWEST MINNESOTA

CITY           SKY/WX    TMP DP  RH WIND       PRES   REMARKS
FAIRMONT       CLOUDY    24  18  77 SW10      30.11F WCI  14
JACKSON        CLOUDY    25  18  74 SW17      30.09F WCI  11
LUVERNE        CLOUDY    16  12  86 S7        30.13F WCI   6
MARSHALL       CLOUDY    27  20  75 W24       30.04F WCI  12
MONTEVIDEO     CLOUDY    27  19  74 W7        30.03F WCI  19
PIPESTONE      CLOUDY    19  14  79 SW7       30.09F WCI  10
REDWOOD FALLS  CLOUDY    24  17  74 SW12      30.05F WCI  13
WINDOM         CLOUDY    25   9  50 SW15G21   30.08F WCI  12
WORTHINGTON    CLOUDY    23  17  78 SW21      30.09F WCI   8
$$

IAZ001>003-012>014-020>022-031-032-NEZ013-014-SDZ071-180600-
NORTHWEST IOWA

CITY           SKY/WX    TMP DP  RH WIND       PRES   REMARKS
CHEROKEE       CLOUDY    22  16  78 SW7       30.20S WCI  13
DENISON        CLOUDY    19  12  73 SW12G20   30.25F WCI   7
ESTHERVILLE    CLOUDY    22  16  78 W16       30.12F WCI   8
LE MARS        CLOUDY    21  16  79 S8        30.18F WCI  12
ORANGE CITY    CLOUDY    21  18  86 SW12      30.16F WCI   9
SHELDON        CLOUDY    21  16  79 S10       30.12F WCI  10
SIOUX CITY     CLOUDY    23  15  71 S6        30.21F WCI  16
SPENCER        CLOUDY    23  15  71 SW13      30.14F WCI  11
STORM LAKE     CLOUDY    21  14  73 W20G25    30.17F WCI   6
$$

ABBREVIATIONS USED IN REMARKS
   TC - TEMPERATURE IN CELSIUS
  WCI - WIND CHILL INDEX
   HX - HEAT INDEX
  VSB - VISIBILITY





USA.gov is the U.S. government's official web portal to all federal, state and local government web resources and services.